Regional Weather Roundup
Issued by NWS Cleveland, OH

Home | Current Version | Previous Version | Graphics & Text | Print | Product List | Glossary On
Versions: 1 2 3 4 5 6 7 8 9 10 11 12 13 14 15 16 17 18 19 20 21 22 23 24 25 26 27 28 29 30 31 32 33 34 35 36 37 38 39 40 41 42 43 44 45 46 47 48 49 50
000
ASUS41 KCLE 160310
RWRCLE
OHIO REGIONAL WEATHER ROUNDUP
NATIONAL WEATHER SERVICE WILMINGTON, OH
1100 PM EDT MON SEP 15 2014

NOTE: "FAIR" INDICATES FEW OR NO CLOUDS BELOW 12,000 FEET WITH NO
SIGNIFICANT WEATHER AND/OR OBSTRUCTIONS TO VISIBILITY.

OHZ001>008-015>018-024>027-034-035-043-044-160400-
   NORTHWEST OHIO

CITY           SKY/WX    TMP DP  RH WIND       PRES   REMARKS
DEFIANCE       CLOUDY    54  53  97 CALM      30.12S FOG
FINDLAY        LGT RAIN  55  53  93 NW6       30.10S FOG
TOLEDO EXPRESS CLOUDY    54  54 100 SW3       30.10R
TOLEDO METCALF RAIN      55  52  89 SW7       30.11R
LIMA           RAIN      56  54  93 NW7       30.12R FOG
$$

OHZ009>014-019>023-028>033-038-089-160400-
   NORTHEAST OHIO

CITY           SKY/WX    TMP DP  RH WIND       PRES   REMARKS
CLE-HOPKINS    LGT RAIN  56  55  97 NW7       30.11S
CLE-LAKEFRONT  LGT RAIN  58  54  86 NW15      30.07S
CUY CO. ARPT   LGT RAIN  57  57 100 N10       30.10S
LORAIN-ELYRIA  LGT RAIN  59  54  83 CALM      30.10S
ASHTABULA      LGT RAIN  55  53  93 N8        30.09F FOG
AKRON-CANTON   CLOUDY    58  53  84 N12       30.08R
WOOSTER        LGT RAIN  57  54  89 NW7       30.09S FOG
MANSFIELD      LGT RAIN  55  54  94 CALM      30.10R FOG
YOUNGSTOWN     LGT RAIN  56  54  93 N6        30.08R FOG
$$

OHZ042-051>053-060>062-070>072-077>081-160400-
  SOUTHWEST OHIO

CITY           SKY/WX    TMP DP  RH WIND       PRES   REMARKS
CINC-COVINGTON LGT RAIN  60  57  89 N7        30.09S
CINC-LUNKEN    CLOUDY    60  59  96 E3        30.11R
HAMILTON       CLOUDY    59  57  93 NW8       30.12R
DAYTON         CLOUDY    59  56  89 NW7       30.13R
WRIGHT-PAT AFB DRIZZLE   59  56  89 W10       30.11R
DAYTON GENERAL LGT RAIN  58  56  93 NW8       30.12R FOG
WILMINGTON     LGT RAIN  58  55  90 W12       30.11R FOG
$$

OHZ036-037-039>041-045>050-054>059-063>069-073>076-082>088-160400-
  CENTRAL AND SOUTHEAST OHIO

CITY           SKY/WX    TMP DP  RH WIND       PRES   REMARKS
COLUMBUS       CLOUDY    65  51  60 NW7       30.07S
OSU AIRPORT    CLOUDY    62  53  72 NW9       30.08R
BOLTON FIELD   CLOUDY    60  55  83 W5        30.09S
RICKENBACK AFB CLOUDY    61  53  74 W8        30.08R
NEWARK         CLOUDY    59  54  83 W3        30.07S
MARION         LGT RAIN  56  54  93 N9        30.10S FOG
LANCASTER      CLOUDY    60  54  80 CALM      30.08S
ZANESVILLE     CLOUDY    57  52  83 SW3       30.07S
NEW PHILLY     CLOUDY    58  55  90 CALM      30.06F
$$


USA.gov is the U.S. government's official web portal to all federal, state and local government web resources and services.